Regional Weather Roundup
Issued by NWS Jackson, KY

Home | Current Version | Previous Version | Text Only | Print | Product List | Glossary On
Versions: 1 2 3 4 5 6 7 8 9 10 11 12 13 14 15 16 17 18 19 20 21 22 23 24 25 26 27 28 29 30 31 32 33 34 35 36 37 38 39 40 41 42 43 44 45 46 47 48 49 50
000
ASUS43 KJKL 231010
RWRJKL

EAST KENTUCKY HOURLY WEATHER ROUNDUP
NATIONAL WEATHER SERVICE JACKSON KY
500 AM EST MON JAN 23 2017

NOTE: "FAIR" INDICATES FEW OR NO CLOUDS BELOW 12,000 FEET WITH
NO SIGNIFICANT WEATHER AND/OR OBSTRUCTIONS TO VISIBILITY.

* THESE REPORTS ARE NOT UNDER NWS QUALITY CONTROL AND MAY NOT
  REPORT WEATHER SUCH AS PRECIPITATION AND FOG.

KYZ079-080-083-085-087-088-110-112-115-119-120-231100
...EASTERN KENTUCKY...

CITY           SKY/WX    TMP DP  RH WIND       PRES   REMARKS
JACKSON        LGT RAIN  51  49  92 VRB7      29.27R
LONDON         LGT RAIN  52  49  89 N13       29.25S
SOMERSET*      DRIZZLE   52  52 100 N12       29.28R
MONTICELLO*    LGT RAIN  53  51  93 N18G29    29.29R
WILLIAMSBURG*  CLOUDY    54  54 100 N12       29.23S
MIDDLESBORO*   DRIZZLE   50  50 100 CALM      29.22S
HARLAN APT*    CLOUDY    52  52 100 CALM      29.22S
PIKE CO APT*   RAIN      50  50 100 N9        29.26F
BIG SANDY APT* LGT RAIN  51  51 100 NE8       29.28S
MOREHEAD APT*  LGT RAIN  52  50  93 NE6G14    29.33S
ASHLAND*       CLOUDY    52  50  93 NE10      29.32S
$$

KYZ035-036-041-042-044-050-067-078-099-231100
...CENTRAL KENTUCKY...

CITY           SKY/WX    TMP DP  RH WIND       PRES   REMARKS
MT STERLING*   DRIZZLE   52  52 100 NE9       29.33S
FLEMING/MASON* RAIN      51  51  99 N10       29.36S
DANVILLE*      LGT RAIN  50  50 100 N13       29.33S
LEXINGTON      RAIN      52  49  89 N13       29.34R FOG
FRANKFORT      RAIN      53  48  83 N12G20    29.36R
LOUISVILLE     LGT RAIN  53  47  79 N18G29    29.41R
LEBANON*       LGT RAIN  52  50  93 N15G21    29.35R
GLASGOW*       RAIN      54  50  86 N16G23    29.36R
BOWLING GREEN  CLOUDY    56  50  80 NW15G24   29.39R
$$

KYZ091>093-OHZ055-061-077-WVZ005-015-034-035-042-231100
...SOUTHERN OHIO/WEST VIRGINIA...

CITY           SKY/WX    TMP DP  RH WIND       PRES   REMARKS
COVINGTON      LGT RAIN  50  48  93 N15       29.42R
COLUMBUS       LGT RAIN  53  48  83 NE9       29.42F
DAYTON         CLOUDY    43  42  97 N17       29.47F FOG
WILMINGTON     CLOUDY    50  48  93 N15       29.41R
HUNTINGTON     LGT RAIN  53  49  86 NE8       29.31S
CHARLESTON     LGT RAIN  53  47  79 NE5       29.30S
BECKLEY        HVY RAIN  47  44  90 E8        29.28F FOG
BLUEFIELD      RAIN      44  43  96 E10G20    29.24F
LOGAN CO APT*  LGT RAIN  52  50  93 NE6G12    29.28S
$$

VAZ002-007-008-TNZ017-027-036-066-071-231100
...SOUTHWEST VIRGINIA/EAST TENNESSEE...

CITY           SKY/WX    TMP DP  RH WIND       PRES   REMARKS
WISE*          RAIN      48  48 100 N10       29.24F
JONESVILLE*    LGT RAIN  50  50 100 CALM      29.23S
ABINGDON*      RAIN      49  48  94 E14       29.19F
BRISTOL        CLOUDY    51  51 100 NE6       29.18S
MORRISTOWN*    CLOUDY    50  50 100 CALM      29.19S
SEVIERVILLE*   CLOUDY    50  48  93 NW6       29.20R
KNOXVILLE      LGT RAIN  51  49  92 W10       29.20S FOG
LAFOLLETTE*    CLOUDY    52  50  93 CALM      29.24R
OAK RIDGE      CLOUDY    51  47  86 W6        29.23R
CROSSVILLE     CLOUDY    51  49  92 NW12      29.24R
NASHVILLE      CLOUDY    55  49  80 NW18G33   29.37R
$$

...KEY TO REMARKS...
VSB - VISIBILITY IN MILES
WCI - WIND CHILL INDEX
HX  - HEAT INDEX

$$



USA.gov is the U.S. government's official web portal to all federal, state and local government web resources and services.